logo meteosicilia

Diretta Meteo Pescara, Italiamercoledì 22 maggio ore 12:50

Mappa
Sereno 24 °C Poco Nuvoloso 24 Ore: T.min 18 T.max 24
Ponente Nord-Est Km/h 14.8 Punto di rugiada: 14 °C Umidità: 53% Visibilità: 10 Km
Il sole sorge alle: 05:33 Il sole tramonta alle: 20:26
22 Maggio 2024 12:50 tempo osservato: Poco Nuvoloso Poco Nuvoloso 24 53 1013 vento: Nord NE 14.8
22 Maggio 2024 12:20 tempo osservato: Molto Nuvoloso Molto Nuvoloso 23 56 1013 vento: Nord E/NE 18.5
22 Maggio 2024 11:50 tempo osservato: Poco Nuvoloso Poco Nuvoloso 23 56 1013 vento: Nord NE 16.7
22 Maggio 2024 11:20 tempo osservato: Sereno Sereno 23 56 1013 vento: Nord NE 18.5
22 Maggio 2024 10:50 tempo osservato: Sereno Sereno 23 60 1013 vento: Nord NE 14.8
22 Maggio 2024 10:20 tempo osservato: Sereno Sereno 23 56 1013 vento: Nord NE 14.8
22 Maggio 2024 09:50 tempo osservato: Sereno Sereno 24 41 1013 vento: Nord N 7.4
22 Maggio 2024 09:20 tempo osservato: Sereno Sereno 24 43 1013 vento: Nord SO 14.8
22 Maggio 2024 08:50 tempo osservato: Sereno Sereno 23 46 1013 vento: Nord SO 13
22 Maggio 2024 08:20 tempo osservato: Sereno Sereno 22 46 1012 vento: Nord SO 13
22 Maggio 2024 07:50 tempo osservato: Sereno Sereno 22 49 1012 vento: Nord N 5.5
22 Maggio 2024 07:20 tempo osservato: Sereno Sereno 20 52 1012 vento: Nord N 3.7
22 Maggio 2024 06:50 tempo osservato: Sereno Sereno 19 55 1012 vento: Nord O 9.3
22 Maggio 2024 06:20 tempo osservato: Sereno Sereno 18 55 1011 vento: Nord O/SO 11.1
22 Maggio 2024 05:50 tempo osservato: Sereno Sereno 18 55 1011 vento: Nord O/SO 11.1
22 Maggio 2024 05:20 tempo osservato: Sereno Sereno 19 52 1011 vento: Nord O/SO 18.5
22 Maggio 2024 04:50 tempo osservato: Sereno Sereno 19 48 1011 vento: Nord SO 24
22 Maggio 2024 04:20 tempo osservato: Sereno Sereno 19 48 1011 vento: Nord SO 24
22 Maggio 2024 03:50 tempo osservato: Sereno Sereno 19 48 1011 vento: Nord SO 24
22 Maggio 2024 03:20 tempo osservato: Nuvoloso Nuvoloso 20 45 1011 vento: Nord SO 22.2
22 Maggio 2024 02:50 tempo osservato: Coperto Coperto 20 45 1011 vento: Nord SO 20.3
22 Maggio 2024 02:20 tempo osservato: Poco Nuvoloso Poco Nuvoloso 20 45 1011 vento: Nord SO 24
22 Maggio 2024 01:50 tempo osservato: Sereno Sereno 19 48 1011 vento: Nord SO 22.2
22 Maggio 2024 01:20 tempo osservato: Poco Nuvoloso Poco Nuvoloso 20 45 1011 vento: Nord SO 24
22 Maggio 2024 00:50 tempo osservato: Nuvoloso Nuvoloso 20 49 1011 vento: Nord SO 20.3
22 Maggio 2024 00:20 tempo osservato: Sereno Sereno 20 49 1011 vento: Nord O/SO 16.7
21 Maggio 2024 23:50 tempo osservato: Sereno Sereno 20 56 1011 vento: Nord O 13
21 Maggio 2024 23:20 tempo osservato: Poco Nuvoloso Poco Nuvoloso 20 64 1011 vento: Nord O/SO 9.3
21 Maggio 2024 22:50 tempo osservato: Sereno Sereno 20 72 1011 vento: Nord O 7.4
21 Maggio 2024 22:20 tempo osservato: Poco Nuvoloso Poco Nuvoloso 20 72 1010 vento: Nord N 3.7
21 Maggio 2024 21:50 tempo osservato: Molto Nuvoloso Molto Nuvoloso 20 72 1010 vento: Nord N 3.7
21 Maggio 2024 21:20 tempo osservato: Sereno Sereno 21 68 1010 vento: Nord N/NE 7.4
21 Maggio 2024 20:50 tempo osservato: Sereno Sereno 21 68 1009 vento: Nord E/SE 7.4
21 Maggio 2024 20:20 tempo osservato: Sereno Sereno 21 73 1009 vento: Nord E/NE 7.4
21 Maggio 2024 19:50 tempo osservato: Sereno Sereno 22 68 1009 vento: Nord E/SE 9.3
21 Maggio 2024 19:20 tempo osservato: Sereno Sereno 23 64 1008 vento: Nord E/SE 11.1
21 Maggio 2024 18:50 tempo osservato: Sereno Sereno 23 64 1008 vento: Nord E 11.1
21 Maggio 2024 18:20 tempo osservato: Sereno Sereno 24 60 1008 vento: Nord E 9.3
21 Maggio 2024 17:50 tempo osservato: Sereno Sereno 24 64 1008 vento: Nord E/SE 13
21 Maggio 2024 17:20 tempo osservato: Sereno Sereno 23 68 1008 vento: Nord E 13
21 Maggio 2024 16:50 tempo osservato: Sereno Sereno 23 73 1008 vento: Nord E/NE 18.5
21 Maggio 2024 16:20 tempo osservato: Poco Nuvoloso Poco Nuvoloso 22 78 1008 vento: Nord NE 14.8
21 Maggio 2024 15:50 tempo osservato: Molto Nuvoloso Molto Nuvoloso 23 78 1008 vento: Nord NE 16.7
21 Maggio 2024 15:20 tempo osservato: Poco Nuvoloso Poco Nuvoloso 22 83 1008 vento: Nord NE 18.5
21 Maggio 2024 14:20 tempo osservato: Pioggia Pioggia 22 83 1007 vento: Nord NE 18.5
21 Maggio 2024 13:50 tempo osservato: Poco Nuvoloso Poco Nuvoloso 23 78 1007 vento: Nord N/NE 25.9